Temperature
28 28 29 28 29 29 29 29 29 29 29 29 29 28 27 26 25 24 23 23 22 22 21 21 20 20 20 20 20 19 19 19 19 19 19 19 18 18 18 18 17 17 17 17
27 28 28 28 28 28 28 29 29 29 29 29 27 26 25 24 24 23 23 22 22 21 20 20 20 20 20 20 19 19 19 19 18 18 19 18 18 18 18 17 17 17 17 17
26 27 27 27 27 28 28 28 28 28 28 27 26 25 24 23 23 22 22 21 21 20 20 20 20 20 20 20 19 19 19 19 18 18 18 18 18 18 17 17 17 17 17 17
26 25 25 27 27 27 27 27 28 27 27 26 25 24 23 22 22 22 21 21 20 19 19 20 20 19 19 19 19 19 19 18 18 18 18 18 17 17 17 17 17 16 16 16
26 25 25 26 26 26 26 26 26 26 25 24 24 23 23 22 21 21 20 19 19 19 19 19 19 19 19 19 18 18 18 18 18 18 17 17 17 17 17 17 16 16 16 16
25 24 25 25 26 25 26 25 25 25 24 24 23 24 23 20 20 19 19 18 18 18 18 18 18 18 18 18 18 17 17 17 17 17 17 17 17 17 17 17 16 16 16 16
24 24 25 24 24 25 24 24 23 23 23 22 23 23 20 19 19 18 18 18 18 18 18 18 18 18 17 17 17 17 17 17 17 17 17 17 16 16 16 16 16 16 15 15
24 23 23 23 23 23 22 21 21 21 21 21 20 19 18 18 18 17 17 17 17 17 17 17 17 17 17 17 17 17 17 16 16 16 16 16 16 16 15 15 15 15 15 15
23 22 21 21 21 20 20 20 20 20 20 19 19 18 17 17 16 16 16 16 16 16 16 16 16 16 16 16 16 16 16 16 16 16 16 15 15 15 15 15 15 15 15 15
21 21 20 20 19 19 19 19 18 18 18 18 18 17 16 16 16 15 15 15 16 16 16 15 15 15 15 15 15 15 16 15 15 15 15 15 15 15 14 14 14 14 14 14
20 20 19 19 18 18 18 17 17 17 17 17 17 16 16 15 15 15 15 15 15 15 15 15 15 15 15 15 15 15 15 15 14 14 15 14 14 14 14 14 14 14 14 14
20 19 19 18 17 17 17 17 17 17 16 16 16 15 15 15 14 14 14 14 14 14 14 14 14 14 14 14 14 14 14 14 14 14 14 14 14 14 13 13 13 13 13 13
18 17 17 16 16 16 16 16 16 16 16 15 15 15 15 14 14 14 14 14 14 14 14 13 13 13 13 13 13 13 13 13 14 14 14 13 13 13 13 13 13 13 13 13
16 16 16 15 16 15 15 15 15 15 15 15 14 14 14 14 13 13 13 13 13 13 13 13 13 13 13 13 13 13 13 13 13 13 13 13 13 13 13 13 13 13 13 12
15 15 15 15 15 15 15 15 15 15 14 14 14 14 13 13 13 13 13 13 13 13 13 13 13 13 12 13 13 13 13 13 12 12 12 12 12 12 12 12 12 12 12 12
15 15 15 14 14 14 14 14 15 14 14 14 14 13 13 13 13 12 12 12 12 12 12 12 12 12 12 12 12 12 12 12 12 12 12 12 12 12 12 11 11 11 11 11
15 15 15 14 14 14 14 14 14 14 14 13 13 13 13 12 12 12 12 12 12 12 12 12 11 11 11 12 12 12 12 12 12 12 12 11 11 11 11 11 11 11 11 11
15 15 15 15 14 14 14 14 14 13 13 13 13 12 12 12 12 12 11 11 11 11 11 11 11 11 11 11 11 11 12 12 11 11 11 11 11 11 10 10 10 10 10 10
14 14 14 14 14 14 13 13 13 13 13 12 12 12 12 12 11 11 11 11 11 11 11 11 11 11 11 11 11 11 11 11 11 11 11 10 10 10 10 10 10 9 9 9
14 14 14 13 13 13 13 13 13 12 12 12 12 12 11 11 11 11 11 11 11 11 10 10 10 10 10 10 10 11 11 11 11 10 10 10 10 10 10 9 9 9 9 9
13 13 13 13 13 12 12 12 12 12 12 12 12 11 11 11 11 11 11 11 10 10 10 10 10 10 10 10 10 10 10 10 10 10 10 10 10 9 9 9 9 9 9 8
13 13 13 13 12 12 12 12 12 12 12 11 11 11 11 11 11 10 10 10 10 10 10 10 10 10 10 10 10 10 10 10 10 10 9 9 9 9 9 9 8 8 8 8
13 13 12 12 12 12 12 12 12 11 11 11 11 11 11 11 11 11 10 10 10 10 10 10 10 10 9 9 10 10 9 9 9 9 9 9 9 8 8 8 8 8 8 7
12 12 12 12 12 12 11 11 11 11 11 11 11 10 10 10 10 10 10 10 10 10 9 9 9 9 9 9 9 9 9 9 9 9 9 9 8 8 8 8 7 7 7 7
12 12 12 12 12 11 11 11 11 11 11 11 11 10 10 10 10 10 10 9 9 9 9 9 9 9 9 9 9 9 8 8 8 8 8 8 8 8 7 7 7 7 7 6
11 12 12 11 11 11 11 11 11 11 11 11 11 10 10 10 10 10 9 9 9 9 9 9 8 8 8 8 8 8 8 8 8 8 8 7 7 7 7 7 6 6 6 6
11 12 11 11 11 11 11 11 11 11 11 11 10 10 10 10 10 9 9 9 9 9 9 8 8 8 8 8 8 8 8 8 7 7 7 7 7 7 6 6 6 6 6 6
Wind_Speed
10 8 8 11 12 13 15 15 14 11 10 8 6 5 4 3 3 4 4 5 6 6 6 6 6 7 8 8 8 8 8 8 8 8 7 7 6 6 6 6 6 6 5 5
10 9 9 10 12 13 14 14 14 12 10 4 3 4 4 3 3 4 4 4 5 5 5 6 6 6 6 7 7 8 8 8 7 7 6 7 6 6 6 6 5 6 6 6
11 9 10 13 11 12 12 13 12 12 8 3 3 4 4 4 4 4 4 4 4 5 4 5 5 6 7 7 7 8 7 7 6 6 6 6 6 6 5 5 5 6 6 6
9 9 14 7 4 7 10 10 10 8 5 4 4 3 2 3 3 4 4 3 3 3 4 4 5 5 6 6 7 7 7 6 6 7 7 6 6 6 5 5 4 4 5 5
9 12 11 7 5 7 9 10 6 6 4 3 2 3 3 2 2 2 3 2 2 2 2 3 4 5 5 6 6 7 6 6 6 6 6 6 6 5 5 4 4 4 4 5
10 12 11 5 2 4 7 10 4 5 5 5 5 6 3 2 2 2 3 2 2 2 3 3 3 5 5 5 5 5 5 5 5 5 5 5 5 4 4 4 4 4 4 4
12 11 7 1 1 3 8 4 2 4 5 5 5 3 2 3 3 3 4 4 4 4 4 3 3 4 5 4 4 3 3 3 3 4 4 4 3 3 3 4 4 4 4 4
10 11 6 3 1 2 3 3 2 2 2 2 2 4 4 4 4 4 5 5 4 4 4 4 4 4 4 3 2 3 3 3 3 3 2 3 3 3 3 3 4 4 4 3
3 2 2 2 2 3 3 2 2 1 0 3 5 5 5 5 5 5 5 5 4 5 5 4 3 3 3 2 2 3 3 3 3 2 2 2 2 3 3 3 3 3 3 3
2 1 1 2 2 2 2 1 2 1 1 4 5 5 6 6 5 5 5 4 4 4 5 4 4 3 3 2 1 2 3 3 3 3 2 2 2 2 2 2 2 2 3 3
4 2 1 0 2 2 2 1 1 2 3 4 5 6 6 5 5 5 4 4 4 3 4 5 4 4 3 2 1 1 2 2 3 3 2 3 2 1 1 0 1 2 3 3
3 1 2 1 1 2 1 2 2 3 4 5 5 6 6 5 5 4 4 4 4 4 4 4 4 4 3 3 1 1 1 2 1 1 2 2 2 1 2 1 2 1 2 4
2 1 1 1 1 0 1 2 2 3 4 6 6 6 7 6 5 5 5 4 4 4 4 4 4 4 3 2 1 1 1 1 1 0 0 1 1 1 1 1 3 3 3 3
0 0 0 0 0 1 2 3 3 4 5 6 6 7 7 7 6 5 4 4 4 4 3 3 3 3 3 2 1 1 1 0 0 0 1 1 1 1 2 2 1 1 1 2
2 2 2 1 2 2 2 3 4 5 6 6 6 6 6 6 6 5 4 4 4 4 3 3 3 3 2 2 2 2 2 2 1 1 1 1 1 1 1 2 2 2 2 1
1 2 3 3 3 4 4 4 4 5 5 5 5 5 5 5 5 4 4 3 3 3 3 3 3 3 3 3 2 2 2 3 1 1 1 1 1 1 1 1 2 2 2 3
3 3 4 4 4 5 5 5 5 5 5 5 6 5 5 5 5 4 4 4 4 3 3 3 3 3 3 3 2 2 2 2 1 1 2 2 2 2 2 2 3 3 3 3
3 3 2 3 4 5 5 5 6 6 5 6 6 5 5 4 4 4 3 4 4 4 3 3 3 2 2 3 2 1 1 2 2 2 3 3 3 3 3 3 4 4 4 3
2 2 3 3 4 5 5 5 6 6 6 6 5 5 4 4 4 4 3 3 3 3 3 3 3 2 2 3 3 1 2 2 2 2 3 2 2 3 3 3 4 4 4 4
4 4 5 5 6 6 6 6 6 6 6 6 6 5 5 5 4 4 3 3 2 3 2 2 2 2 2 2 3 1 2 2 2 2 2 3 3 3 3 3 3 4 4 4
5 6 6 7 7 7 6 6 6 6 5 5 5 5 5 5 4 3 2 2 3 3 2 1 1 2 2 3 2 2 2 2 2 2 3 3 3 3 4 4 4 4 4 5
5 6 6 6 6 6 5 4 5 6 5 5 5 5 5 4 4 3 2 2 2 2 1 1 2 4 5 4 2 3 3 3 3 3 3 3 3 4 4 5 5 5 5 5
5 5 5 6 6 5 5 4 5 5 5 5 4 4 3 3 2 2 2 2 2 2 1 2 4 4 3 2 2 3 3 3 3 3 3 3 3 3 4 4 5 5 5 5
5 5 5 6 6 5 5 5 5 5 5 5 4 4 3 2 2 2 3 4 3 2 2 5 4 2 3 1 2 2 2 3 3 3 3 3 3 4 4 4 5 5 5 5
4 5 5 6 5 4 5 5 5 5 5 4 4 3 2 2 2 2 3 3 3 1 2 4 3 0 1 2 3 3 3 4 4 4 4 4 4 4 4 4 4 5 5 5
4 4 4 4 3 4 4 4 4 4 3 3 3 2 2 2 2 2 2 3 3 1 1 2 2 1 1 2 3 3 3 3 3 3 4 4 5 5 5 5 5 5 5 5
5 5 4 3 4 3 4 4 4 3 3 3 3 2 2 2 2 2 2 2 1 1 1 1 1 1 1 2 2 2 3 3 3 3 3 4 4 4 5 5 5 5 5 6
Wind_Direction
250 250 234 232 227 226 233 245 252 253 254 257 245 231 216 198 183 166 167 171 176 181 179 181 181 183 185 186 184 183 187 193 196 198 201 206 209 215 216 218 220 221 226 232
236 232 230 234 231 230 235 242 248 253 257 271 255 224 210 197 187 183 181 184 185 185 184 186 184 183 181 182 183 182 187 194 194 198 202 207 210 214 214 217 223 222 230 232
231 226 232 234 231 231 236 241 247 251 260 246 237 234 222 211 206 202 201 199 194 191 188 185 183 181 180 179 178 180 185 190 192 201 208 212 212 210 212 216 221 226 230 231
234 224 234 231 224 238 240 243 250 257 257 246 239 229 219 210 204 201 195 193 191 191 185 181 180 180 182 177 173 175 180 185 187 195 202 203 205 206 205 207 213 220 229 235
231 230 233 228 237 241 241 244 248 251 239 224 215 200 211 190 173 168 173 176 177 182 171 165 173 174 172 173 172 177 183 190 194 196 201 199 203 205 204 201 212 221 228 233
234 241 241 236 250 261 242 237 240 248 231 219 223 234 225 147 138 128 121 122 126 122 124 133 157 163 165 167 170 178 185 192 195 195 202 203 204 206 202 198 207 220 226 232
233 239 240 10 332 220 228 245 301 255 232 221 233 262 154 137 123 114 108 101 95 99 101 104 121 139 148 148 153 161 163 161 167 172 184 189 191 201 210 208 206 219 228 230
230 234 230 54 184 240 334 355 331 307 229 210 159 121 126 123 115 109 106 100 96 94 94 96 107 124 133 137 138 139 143 148 155 163 173 166 174 190 212 221 211 214 222 239
243 246 38 37 357 351 349 343 336 319 256 160 140 137 130 118 109 100 97 96 98 101 99 95 93 101 109 105 112 128 137 145 156 164 163 169 187 194 207 217 233 231 231 239
233 221 338 3 5 357 357 339 332 304 149 141 138 136 129 121 113 103 93 93 100 107 100 91 86 85 83 68 95 141 148 160 175 177 178 176 206 204 224 236 246 251 260 265
231 238 238 293 3 5 22 41 65 106 121 133 134 132 127 121 113 106 99 95 100 107 103 93 86 79 72 57 47 150 177 187 197 193 185 196 193 201 229 271 303 273 267 273
259 234 255 271 7 1 49 83 106 121 118 122 125 125 122 115 108 107 101 98 98 97 96 94 85 76 62 53 42 320 227 221 221 218 199 206 190 178 98 148 117 187 290 298
292 317 339 15 28 6 95 99 96 109 115 114 113 117 117 112 102 97 95 97 93 87 84 84 81 75 60 46 42 337 300 282 262 257 244 247 235 243 246 195 180 200 221 242
292 71 46 107 126 107 105 104 104 107 106 107 111 113 113 109 104 97 92 92 97 92 82 79 76 62 44 42 27 311 294 64 333 35 16 349 311 293 291 300 298 309 217 156
228 223 200 169 141 136 136 133 128 121 115 112 113 115 116 112 105 98 93 86 89 88 79 73 68 53 35 46 47 26 19 28 26 19 4 348 326 313 317 328 325 334 350 25
214 171 169 166 162 159 154 147 137 129 125 119 117 120 121 114 105 96 90 85 88 75 66 55 47 41 39 41 39 38 54 71 21 353 10 18 16 358 352 345 329 328 335 344
204 195 184 177 170 165 157 148 139 134 130 125 122 122 122 117 107 93 84 75 73 73 62 54 39 30 30 34 34 35 36 70 126 12 21 14 12 4 359 348 339 331 328 356
235 226 204 175 158 152 145 136 135 132 126 120 121 126 126 118 107 94 84 82 77 68 55 43 31 22 31 35 28 16 37 43 35 26 21 15 6 4 2 360 353 347 340 343
150 143 140 136 133 132 130 128 129 127 125 126 126 122 116 111 106 101 94 89 83 81 57 40 18 7 27 26 0 8 18 30 35 28 18 21 358 11 8 0 352 345 340 338
123 123 124 122 120 120 122 128 130 128 128 127 126 123 119 117 115 107 94 74 50 46 58 33 21 22 16 19 335 349 15 19 22 24 15 5 1 357 353 347 341 336 335 332
127 123 122 121 119 117 123 129 129 128 125 126 129 128 125 122 118 117 117 94 71 47 56 76 49 27 16 6 316 349 10 11 6 5 6 6 3 0 359 355 350 347 343 338
131 129 125 123 120 117 116 123 126 125 123 123 126 126 122 121 120 116 95 65 87 56 32 47 50 45 14 345 3 18 19 16 13 9 9 10 3 1 359 354 348 347 345 341
126 124 124 123 121 118 116 118 121 121 121 122 122 122 121 111 105 105 97 73 75 72 46 46 51 44 345 327 5 20 20 15 10 5 5 4 356 352 352 350 344 342 341 339
116 115 116 116 120 122 119 117 116 115 115 117 116 112 113 114 97 79 80 90 75 77 70 70 66 12 290 340 21 25 16 4 356 355 0 358 352 349 350 347 341 339 339 338
120 117 119 124 128 127 126 125 121 118 118 115 113 108 103 85 83 77 81 88 90 97 89 97 115 3 354 24 31 24 16 17 11 2 4 357 348 348 350 346 340 334 335 335
123 125 121 126 122 129 131 128 125 123 121 116 109 99 92 90 96 104 111 108 104 90 54 84 102 135 37 29 28 11 0 17 14 6 5 355 350 349 350 347 338 333 332 334
120 116 117 118 118 118 117 119 117 115 109 107 104 92 79 82 99 101 101 101 105 109 82 78 84 44 15 18 24 13 7 9 5 357 353 351 348 343 341 337 332 329 327 327
Height
1465 1462 1463 1466 1467 1467 1469 1468 1471 1468 1469 1469 1470 1474 1478 1481 1483 1485 1487 1489 1491 1493 1495 1497 1499 1501 1503 1505 1507 1509 1511 1513 1515 1516 1518 1519 1521 1522 1523 1524 1525 1525 1526 1526
1470 1464 1464 1467 1465 1466 1467 1466 1466 1467 1468 1468 1472 1475 1478 1481 1483 1484 1486 1488 1489 1491 1493 1495 1497 1498 1500 1502 1504 1506 1508 1510 1512 1514 1515 1516 1518 1519 1520 1521 1521 1522 1522 1523
1470 1465 1466 1471 1464 1464 1465 1463 1465 1467 1468 1470 1473 1476 1478 1480 1482 1483 1485 1486 1487 1489 1491 1492 1494 1496 1497 1499 1501 1503 1505 1507 1509 1511 1512 1514 1515 1516 1516 1517 1518 1518 1519 1519
1467 1473 1482 1466 1459 1460 1463 1462 1463 1464 1467 1470 1473 1476 1478 1479 1481 1482 1483 1485 1486 1487 1488 1490 1492 1494 1496 1497 1499 1501 1503 1505 1506 1508 1509 1510 1511 1512 1513 1514 1514 1515 1515 1516
1467 1471 1469 1464 1461 1462 1464 1464 1464 1466 1468 1472 1473 1475 1476 1479 1480 1481 1482 1483 1484 1485 1487 1488 1490 1492 1494 1495 1497 1498 1500 1502 1503 1505 1506 1507 1508 1508 1509 1510 1511 1511 1512 1512
1467 1472 1473 1464 1461 1463 1464 1466 1466 1467 1469 1471 1472 1471 1474 1478 1479 1480 1481 1482 1483 1484 1486 1487 1488 1490 1492 1493 1495 1496 1498 1499 1501 1502 1503 1504 1504 1506 1506 1507 1508 1509 1509 1509
1466 1468 1463 1462 1463 1463 1470 1469 1468 1468 1469 1471 1472 1473 1476 1477 1479 1479 1480 1481 1482 1483 1484 1486 1487 1489 1490 1491 1493 1494 1496 1497 1498 1499 1500 1501 1501 1502 1503 1504 1505 1505 1505 1505
1464 1468 1469 1465 1464 1466 1469 1469 1469 1470 1470 1472 1473 1474 1475 1477 1478 1479 1479 1480 1481 1482 1484 1485 1487 1488 1489 1490 1491 1492 1494 1495 1496 1497 1498 1499 1499 1499 1500 1501 1501 1501 1501 1501
1464 1467 1468 1468 1469 1471 1471 1471 1471 1471 1471 1472 1473 1474 1475 1477 1478 1479 1479 1480 1481 1482 1483 1484 1486 1487 1488 1489 1490 1491 1492 1493 1493 1494 1495 1496 1497 1497 1497 1498 1499 1499 1498 1498
1467 1466 1468 1470 1471 1471 1471 1472 1472 1471 1471 1472 1473 1474 1475 1476 1477 1478 1479 1480 1481 1482 1483 1483 1485 1486 1486 1487 1489 1490 1490 1491 1491 1492 1492 1493 1494 1495 1495 1495 1496 1496 1496 1495
1467 1468 1470 1470 1471 1471 1471 1471 1471 1472 1472 1472 1473 1474 1475 1475 1477 1478 1479 1480 1481 1482 1482 1483 1484 1485 1485 1486 1488 1489 1489 1489 1489 1490 1490 1491 1491 1491 1492 1492 1492 1492 1492 1493
1465 1469 1469 1471 1472 1472 1471 1472 1472 1472 1472 1473 1473 1474 1475 1476 1477 1478 1479 1480 1481 1481 1482 1483 1483 1484 1485 1485 1486 1487 1487 1487 1487 1488 1488 1488 1489 1489 1489 1489 1489 1489 1489 1489
1470 1470 1471 1471 1472 1472 1472 1472 1473 1473 1473 1474 1474 1475 1476 1476 1478 1479 1480 1480 1481 1482 1482 1483 1483 1484 1484 1484 1485 1485 1485 1485 1485 1485 1486 1486 1486 1486 1486 1486 1486 1486 1485 1485
1471 1471 1471 1472 1472 1473 1473 1473 1474 1474 1474 1475 1475 1476 1477 1478 1479 1480 1481 1481 1482 1482 1483 1483 1483 1483 1483 1482 1483 1484 1484 1483 1483 1483 1484 1484 1484 1484 1484 1483 1483 1483 1482 1482
1471 1472 1472 1472 1473 1473 1473 1474 1474 1475 1475 1476 1477 1478 1479 1480 1481 1481 1482 1482 1482 1482 1483 1483 1483 1482 1482 1482 1482 1483 1483 1482 1482 1482 1482 1483 1483 1482 1482 1481 1481 1481 1480 1479
1471 1471 1472 1472 1472 1473 1474 1474 1475 1476 1476 1477 1478 1480 1481 1482 1482 1482 1483 1483 1483 1483 1483 1483 1482 1482 1482 1481 1481 1482 1482 1481 1481 1482 1482 1481 1481 1480 1480 1480 1479 1479 1478 1478
1470 1470 1471 1471 1472 1473 1474 1475 1476 1477 1478 1478 1480 1481 1482 1482 1483 1483 1484 1484 1484 1484 1483 1483 1482 1482 1482 1481 1481 1481 1482 1482 1481 1482 1482 1481 1480 1479 1479 1479 1478 1477 1477 1476
1470 1470 1470 1471 1472 1473 1474 1475 1477 1478 1479 1479 1480 1481 1482 1483 1483 1484 1485 1485 1484 1484 1484 1483 1483 1482 1482 1481 1481 1481 1482 1481 1481 1481 1480 1479 1479 1479 1478 1477 1476 1476 1475 1474
1469 1470 1471 1471 1472 1473 1475 1476 1478 1479 1479 1480 1481 1482 1483 1483 1484 1485 1485 1485 1485 1485 1485 1484 1483 1483 1483 1482 1481 1481 1481 1481 1480 1480 1479 1479 1478 1478 1477 1476 1475 1474 1473 1472
1469 1470 1471 1472 1473 1474 1475 1477 1478 1479 1480 1481 1482 1483 1484 1484 1485 1485 1485 1485 1485 1485 1485 1484 1484 1483 1483 1482 1481 1481 1481 1480 1480 1480 1479 1479 1478 1478 1477 1476 1475 1474 1472 1471
1469 1470 1471 1472 1474 1475 1476 1478 1479 1479 1480 1481 1482 1483 1484 1484 1485 1485 1485 1485 1486 1485 1485 1484 1484 1483 1483 1482 1481 1481 1481 1480 1480 1479 1479 1479 1478 1477 1476 1475 1474 1472 1471 1469
1470 1471 1472 1474 1474 1476 1477 1478 1479 1480 1480 1481 1483 1483 1484 1484 1485 1485 1485 1485 1485 1485 1485 1485 1484 1483 1482 1482 1482 1481 1480 1480 1480 1479 1479 1478 1477 1476 1475 1474 1472 1471 1470 1468
1470 1472 1473 1474 1475 1477 1478 1479 1480 1480 1481 1482 1483 1484 1484 1485 1485 1485 1485 1485 1485 1484 1484 1484 1483 1482 1482 1482 1482 1481 1481 1480 1480 1479 1478 1477 1476 1475 1474 1473 1472 1470 1469 1467
1471 1472 1474 1475 1476 1477 1479 1480 1481 1481 1482 1483 1483 1484 1484 1485 1485 1485 1485 1484 1484 1484 1484 1483 1482 1482 1482 1482 1482 1481 1481 1480 1479 1479 1477 1476 1475 1475 1473 1472 1471 1469 1467 1466
1472 1473 1474 1476 1477 1478 1479 1480 1481 1482 1483 1483 1484 1484 1485 1485 1485 1485 1485 1484 1484 1484 1484 1483 1482 1482 1482 1482 1482 1481 1481 1479 1478 1478 1477 1476 1475 1474 1472 1471 1469 1468 1466 1464
1473 1474 1475 1477 1478 1478 1480 1480 1481 1482 1483 1484 1485 1485 1485 1485 1485 1485 1485 1485 1484 1484 1484 1484 1483 1483 1483 1482 1481 1481 1480 1479 1478 1477 1476 1475 1474 1473 1471 1469 1468 1466 1464 1462
1474 1475 1476 1478 1479 1480 1480 1481 1482 1483 1484 1484 1485 1486 1486 1486 1486 1485 1485 1485 1485 1485 1485 1484 1484 1483 1483 1482 1482 1481 1480 1479 1478 1477 1475 1474 1473 1472 1470 1468 1466 1464 1462 1461